TimeEDT,TemperatureF,Dew PointF,Humidity,Sea Level PressureIn,VisibilityMPH,Wind Direction,Wind SpeedMPH,Gust SpeedMPH,PrecipitationIn,Events,Conditions,WindDirDegrees,DateUTC
12:52 AM,45.0,43.0,93,30.33,10.0,NW,3.5,-,N/A,,Clear,310,2013-09-18 04:52:00
1:52 AM,46.0,43.0,89,30.32,10.0,NW,3.5,-,N/A,,Clear,310,2013-09-18 05:52:00
2:52 AM,48.0,45.0,89,30.31,10.0,NW,3.5,-,N/A,,Clear,310,2013-09-18 06:52:00
3:52 AM,48.0,45.0,89,30.31,10.0,NW,3.5,-,N/A,,Clear,310,2013-09-18 07:52:00
4:52 AM,48.0,45.0,89,30.29,10.0,NW,3.5,-,N/A,,Clear,310,2013-09-18 08:52:00
5:52 AM,48.9,46.0,90,30.30,10.0,NW,3.5,-,N/A,,Clear,310,2013-09-18 09:52:00
6:52 AM,50.0,46.9,89,30.31,10.0,NW,3.5,-,N/A,,Clear,310,2013-09-18 10:52:00
7:52 AM,55.9,50.0,80,30.32,10.0,Variable,3.5,-,N/A,,Clear,0,2013-09-18 11:52:00
8:52 AM,61.0,50.0,67,30.31,10.0,Variable,4.6,-,N/A,,Clear,0,2013-09-18 12:52:00
9:52 AM,64.9,46.0,50,30.31,10.0,Variable,4.6,-,N/A,,Clear,0,2013-09-18 13:52:00
10:52 AM,66.0,44.1,45,30.30,10.0,Variable,4.6,-,N/A,,Clear,0,2013-09-18 14:52:00
11:52 AM,69.1,41.0,36,30.28,10.0,Variable,3.5,-,N/A,,Clear,0,2013-09-18 15:52:00
12:52 PM,70.0,39.9,33,30.27,10.0,Variable,4.6,-,N/A,,Clear,0,2013-09-18 16:52:00
1:52 PM,69.1,45.0,42,30.25,10.0,Variable,4.6,-,N/A,,Clear,0,2013-09-18 17:52:00
2:52 PM,70.0,45.0,41,30.22,10.0,SW,9.2,16.1,N/A,,Clear,220,2013-09-18 18:52:00
3:52 PM,69.1,46.0,44,30.21,10.0,WSW,8.1,-,N/A,,Clear,240,2013-09-18 19:52:00
4:52 PM,66.9,46.9,49,30.20,10.0,SW,8.1,-,N/A,,Clear,220,2013-09-18 20:52:00
5:52 PM,64.0,48.9,58,30.20,10.0,SW,9.2,16.1,N/A,,Clear,220,2013-09-18 21:52:00
6:52 PM,62.1,48.9,62,30.18,10.0,Variable,5.8,-,N/A,,Clear,0,2013-09-18 22:52:00
7:52 PM,61.0,48.0,62,30.18,10.0,WSW,6.9,-,N/A,,Clear,240,2013-09-18 23:52:00
8:52 PM,61.0,51.1,70,30.19,10.0,WSW,6.9,-,N/A,,Clear,240,2013-09-19 00:52:00
9:52 PM,60.1,53.1,78,30.18,10.0,WSW,5.8,-,N/A,,Clear,250,2013-09-19 01:52:00
10:52 PM,59.0,52.0,78,30.18,10.0,West,4.6,-,N/A,,Clear,260,2013-09-19 02:52:00
11:52 PM,57.9,52.0,81,30.17,10.0,West,3.5,-,N/A,,Clear,260,2013-09-19 03:52:00